When you browse on this site, cookies collect data to enhance your experience and personalize the content and advertising you see.
Visit our Privacy Policy to learn more. By continuing to use the site, you agree to this use of cookies and data.
  • In Deutschland
  • Länderverzeichnis
  • Für 7 Tage
  • Wassertemperatur
  • Satellitenkarten
  • Wetterkarte
  • Widgets
  • user-avatar
    Anmelden

    Stündliche Wetter Mugan

    Heute, 18 Dezember, Dienstag

    Zeit Temperatur Niederschläge Wind Luftdruck Luftfeuchtigkeit
    00:00 +6°C° 0.4 mm 4 m/S 770 mmHg 85%
    01:00 +6°C° 0.3 mm 4 m/S 770 mmHg 85%
    02:00 +6°C° 0.3 mm 4 m/S 770 mmHg 85%
    03:00 +6°C° 0 mm 4 m/S 770 mmHg 85%
    04:00 +6°C° 0.3 mm 4 m/S 769 mmHg 85%
    05:00 +6°C° 0.3 mm 4 m/S 769 mmHg 85%
    06:00 +6°C° 0.3 mm 4 m/S 769 mmHg 85%
    07:00 +6°C° 0.5 mm 4 m/S 770 mmHg 84%
    08:00 +6°C° 0.5 mm 4 m/S 770 mmHg 83%
    09:00 +7°C° 0 mm 3 m/S 770 mmHg 83%
    10:00 +7°C° 0.4 mm 4 m/S 770 mmHg 82%
    11:00 +7°C° 0.4 mm 4 m/S 770 mmHg 80%
    12:00 +7°C° 0.4 mm 4 m/S 770 mmHg 79%
    13:00 +7°C° 0.2 mm 4 m/S 770 mmHg 79%
    14:00 +7°C° 0.2 mm 4 m/S 770 mmHg 79%
    15:00 +7°C° 0 mm 4 m/S 770 mmHg 80%
    16:00 +7°C° 0.1 mm 4 m/S 770 mmHg 81%
    17:00 +6°C° 0.1 mm 4 m/S 771 mmHg 82%
    18:00 +7°C° 0.1 mm 3 m/S 771 mmHg 82%
    19:00 +7°C° 0 mm 3 m/S 771 mmHg 82%
    20:00 +7°C° 0 mm 3 m/S 771 mmHg 82%
    21:00 +7°C° 0 mm 3 m/S 772 mmHg 82%
    22:00 +7°C° 0 mm 3 m/S 772 mmHg 82%
    23:00 +7°C° 0 mm 3 m/S 772 mmHg 82%

    Morgen, 19 Dezember, Mittwoch

    Zeit Temperatur Niederschläge Wind Luftdruck Luftfeuchtigkeit
    00:00 +7°C° 0 mm 2 m/S 772 mmHg 82%
    01:00 +7°C° 0 mm 2 m/S 772 mmHg 82%
    02:00 +7°C° 0 mm 2 m/S 772 mmHg 82%
    03:00 +6°C° 0 mm 2 m/S 772 mmHg 83%
    04:00 +6°C° 0 mm 2 m/S 772 mmHg 83%
    05:00 +6°C° 0 mm 2 m/S 773 mmHg 82%
    06:00 +6°C° 0 mm 2 m/S 773 mmHg 82%
    07:00 +7°C° 0 mm 2 m/S 773 mmHg 80%
    08:00 +7°C° 0 mm 2 m/S 773 mmHg 78%
    09:00 +7°C° 0 mm 2 m/S 773 mmHg 76%
    10:00 +8°C° 0 mm 2 m/S 773 mmHg 74%
    11:00 +9°C° 0 mm 2 m/S 772 mmHg 72%
    12:00 +9°C° 0 mm 2 m/S 772 mmHg 69%
    13:00 +9°C° 0 mm 2 m/S 772 mmHg 70%
    14:00 +9°C° 0 mm 2 m/S 772 mmHg 70%
    15:00 +9°C° 0 mm 2 m/S 772 mmHg 70%
    16:00 +9°C° 0 mm 2 m/S 772 mmHg 73%
    17:00 +9°C° 0 mm 2 m/S 772 mmHg 76%
    18:00 +9°C° 0 mm 2 m/S 772 mmHg 79%
    19:00 +8°C° 0.1 mm 2 m/S 772 mmHg 80%
    20:00 +8°C° 0.1 mm 2 m/S 772 mmHg 81%
    21:00 +8°C° 0.1 mm 3 m/S 772 mmHg 82%
    22:00 +8°C° 0.1 mm 2 m/S 772 mmHg 83%
    23:00 +8°C° 0.1 mm 2 m/S 771 mmHg 83%

    übermorgen, 20 Dezember, Donnerstag

    Zeit Temperatur Niederschläge Wind Luftdruck Luftfeuchtigkeit
    00:00 +8°C° 0.1 mm 2 m/S 771 mmHg 83%
    01:00 +8°C° 0.1 mm 2 m/S 771 mmHg 82%
    02:00 +8°C° 0.1 mm 2 m/S 771 mmHg 82%
    03:00 +8°C° 0.1 mm 2 m/S 771 mmHg 82%
    04:00 +8°C° 0.3 mm 2 m/S 771 mmHg 82%
    05:00 +9°C° 0.3 mm 2 m/S 770 mmHg 82%
    06:00 +9°C° 0.3 mm 3 m/S 770 mmHg 83%
    07:00 +9°C° 0.5 mm 2 m/S 770 mmHg 82%
    08:00 +9°C° 0.5 mm 2 m/S 770 mmHg 82%
    09:00 +9°C° 0.5 mm 2 m/S 770 mmHg 81%
    10:00 +9°C° 0.3 mm 2 m/S 770 mmHg 81%
    11:00 +9°C° 0.3 mm 2 m/S 769 mmHg 81%
    12:00 +10°C° 0.3 mm 2 m/S 769 mmHg 80%
    13:00 +10°C° 0.1 mm 2 m/S 769 mmHg 81%
    14:00 +10°C° 0.1 mm 2 m/S 768 mmHg 81%
    15:00 +10°C° 0.1 mm 2 m/S 768 mmHg 81%
    16:00 +10°C° 0.1 mm 2 m/S 768 mmHg 83%
    17:00 +10°C° 0.1 mm 2 m/S 768 mmHg 84%
    18:00 +11°C° 0.1 mm 1 m/S 768 mmHg 86%
    19:00 +10°C° 0.3 mm 2 m/S 769 mmHg 87%
    20:00 +10°C° 0.3 mm 2 m/S 769 mmHg 87%
    21:00 +9°C° 0.3 mm 2 m/S 769 mmHg 88%
    22:00 +9°C° 0.6 mm 2 m/S 769 mmHg 88%
    23:00 +9°C° 0.6 mm 2 m/S 769 mmHg 89%

    21 Dezember, Freitag

    Zeit Temperatur Niederschläge Wind Luftdruck Luftfeuchtigkeit
    00:00 +9°C° 0.6 mm 2 m/S 769 mmHg 89%
    01:00 +9°C° 0.7 mm 2 m/S 769 mmHg 89%
    02:00 +9°C° 0.7 mm 2 m/S 769 mmHg 90%
    03:00 +8°C° 0.7 mm 2 m/S 769 mmHg 90%
    04:00 +8°C° 0.5 mm 2 m/S 769 mmHg 89%
    05:00 +8°C° 0.5 mm 2 m/S 769 mmHg 89%
    06:00 +8°C° 0.5 mm 2 m/S 770 mmHg 89%
    07:00 +8°C° 0.4 mm 2 m/S 770 mmHg 88%
    08:00 +8°C° 0.4 mm 3 m/S 770 mmHg 87%
    09:00 +8°C° 0.4 mm 3 m/S 771 mmHg 86%
    10:00 +8°C° 0.2 mm 3 m/S 770 mmHg 84%
    11:00 +8°C° 0.2 mm 3 m/S 770 mmHg 82%
    12:00 +9°C° 0.2 mm 3 m/S 770 mmHg 80%
    13:00 +9°C° 0.1 mm 3 m/S 770 mmHg 80%
    14:00 +9°C° 0.1 mm 3 m/S 770 mmHg 80%
    15:00 +9°C° 0.1 mm 3 m/S 770 mmHg 80%
    16:00 +8°C° 0 mm 3 m/S 770 mmHg 81%
    17:00 +8°C° 0 mm 3 m/S 771 mmHg 82%
    18:00 +8°C° 0 mm 3 m/S 771 mmHg 83%
    19:00 +8°C° 0 mm 3 m/S 771 mmHg 83%
    20:00 +8°C° 0 mm 3 m/S 771 mmHg 83%
    21:00 +8°C° 0 mm 3 m/S 771 mmHg 83%
    22:00 +7°C° 0 mm 2 m/S 771 mmHg 83%
    23:00 +7°C° 0 mm 2 m/S 771 mmHg 84%

    22 Dezember, Samstag

    Zeit Temperatur Niederschläge Wind Luftdruck Luftfeuchtigkeit
    00:00 +7°C° 0 mm 2 m/S 771 mmHg 84%
    01:00 +7°C° 0 mm 2 m/S 770 mmHg 85%
    02:00 +8°C° 0 mm 1 m/S 770 mmHg 85%
    03:00 +8°C° 0 mm 1 m/S 770 mmHg 86%
    04:00 +8°C° 0 mm 1 m/S 770 mmHg 87%
    05:00 +7°C° 0 mm 1 m/S 770 mmHg 88%
    06:00 +7°C° 0 mm 1 m/S 770 mmHg 88%
    07:00 +7°C° 0 mm 1 m/S 770 mmHg 86%
    08:00 +8°C° 0 mm 1 m/S 770 mmHg 84%
    09:00 +8°C° 0 mm 1 m/S 770 mmHg 82%
    10:00 +9°C° 0 mm 1 m/S 769 mmHg 78%
    11:00 +8°C° 0 mm 2 m/S 768 mmHg 75%
    12:00 +9°C° 0 mm 2 m/S 768 mmHg 72%
    13:00 +9°C° 0 mm 2 m/S 767 mmHg 71%
    14:00 +9°C° 0 mm 2 m/S 767 mmHg 70%
    15:00 +10°C° 0 mm 2 m/S 767 mmHg 69%
    16:00 +9°C° 0 mm 2 m/S 767 mmHg 72%
    17:00 +9°C° 0 mm 2 m/S 767 mmHg 76%
    18:00 +8°C° 0 mm 2 m/S 767 mmHg 79%
    19:00 +8°C° 0 mm 2 m/S 767 mmHg 80%
    20:00 +8°C° 0 mm 2 m/S 767 mmHg 82%
    21:00 +7°C° 0 mm 2 m/S 767 mmHg 83%
    22:00 +7°C° 0 mm 2 m/S 767 mmHg 84%
    23:00 +7°C° 0 mm 2 m/S 767 mmHg 84%

    23 Dezember, Sonntag

    Zeit Temperatur Niederschläge Wind Luftdruck Luftfeuchtigkeit
    00:00 +7°C° 0 mm 2 m/S 767 mmHg 85%
    01:00 +6°C° 0 mm 2 m/S 767 mmHg 85%
    02:00 +6°C° 0 mm 2 m/S 767 mmHg 86%
    03:00 +7°C° 0 mm 1 m/S 768 mmHg 86%
    04:00 +7°C° 0 mm 1 m/S 768 mmHg 86%
    05:00 +7°C° 0 mm 1 m/S 768 mmHg 87%
    06:00 +6°C° 0 mm 1 m/S 768 mmHg 87%
    07:00 +7°C° 0 mm 1 m/S 768 mmHg 83%
    08:00 +8°C° 0 mm 1 m/S 769 mmHg 79%
    09:00 +9°C° 0 mm 1 m/S 769 mmHg 75%
    10:00 +9°C° 0 mm 1 m/S 769 mmHg 70%
    11:00 +10°C° 0 mm 1 m/S 768 mmHg 65%
    12:00 +11°C° 0 mm 1 m/S 768 mmHg 60%
    13:00 +10°C° 0 mm 2 m/S 767 mmHg 57%
    14:00 +12°C° 0 mm 2 m/S 767 mmHg 55%
    15:00 +12°C° 0 mm 2 m/S 767 mmHg 52%
    16:00 +10°C° 0 mm 2 m/S 767 mmHg 56%
    17:00 +9°C° 0 mm 2 m/S 767 mmHg 59%
    18:00 +9°C° 0 mm 2 m/S 767 mmHg 63%
    19:00 +8°C° 0 mm 3 m/S 767 mmHg 65%
    20:00 +8°C° 0 mm 3 m/S 766 mmHg 68%
    21:00 +8°C° 0 mm 3 m/S 766 mmHg 70%
    22:00 +7°C° 0 mm 3 m/S 766 mmHg 71%
    23:00 +7°C° 0 mm 3 m/S 765 mmHg 73%
    Mehr zeigen